FIN87D EFHK-LIRF

Flight info

Callsign FIN87D
Flight time N/A
Altitude 40000
Route VALOX Y117 ROSAX DCT ANFEV DCT PENOR DCT RASAN DCT ASTEL DCT BUDEX DCT BAXON/N0472F370 DCT UNUMU DCT ETPOK T369 RITEB
Aircraft A359/H-SDE2E3GHIJ3J4J5LM1ORWXY/LB1D1

Departure

Time N/A
Airport Helsinki Vantaa Airport (EFHK)

Arrival

Time 2026-02-20 10:30
Airport Rome–Fiumicino Leonardo da Vinci International Airport (LIRF)
Time Latitude Longitude Altitude Speed Heading
2026-02-20 09:04 52.61394 15.75830 40352 ft 484 kts 199°
2026-02-20 09:04 52.58132 15.74428 40352 ft 484 kts 199°
2026-02-20 09:05 52.51582 15.71616 40354 ft 491 kts 199°
2026-02-20 09:05 52.44902 15.68753 40344 ft 500 kts 199°
2026-02-20 09:06 52.38096 15.65850 40336 ft 508 kts 199°
2026-02-20 09:06 52.31215 15.62929 40330 ft 512 kts 199°
2026-02-20 09:07 52.24355 15.60028 40325 ft 513 kts 199°
2026-02-20 09:07 52.17448 15.57115 40320 ft 513 kts 199°
2026-02-20 09:08 52.10545 15.54211 40343 ft 513 kts 199°
2026-02-20 09:08 52.03620 15.51307 40340 ft 513 kts 198°
2026-02-20 09:09 51.96711 15.48417 40315 ft 513 kts 198°
2026-02-20 09:09 51.89788 15.45531 40324 ft 514 kts 198°
2026-02-20 09:10 51.82869 15.42657 40319 ft 514 kts 198°
2026-02-20 09:10 51.75932 15.39783 40320 ft 514 kts 198°
2026-02-20 09:11 51.69007 15.36924 40336 ft 514 kts 198°
2026-02-20 09:11 51.65592 15.35519 40549 ft 510 kts 198°
2026-02-20 09:11 51.62164 15.34112 40852 ft 507 kts 198°
2026-02-20 09:12 51.58738 15.32706 41017 ft 507 kts 198°
2026-02-20 09:12 51.55326 15.31307 41154 ft 506 kts 198°
2026-02-20 09:12 51.51908 15.29906 41271 ft 506 kts 198°
2026-02-20 09:12 51.48487 15.28507 41402 ft 506 kts 198°
2026-02-20 09:13 51.45073 15.27113 41517 ft 507 kts 198°
2026-02-20 09:13 51.41655 15.25720 41648 ft 506 kts 198°
2026-02-20 09:13 51.38244 15.24332 41772 ft 506 kts 198°
2026-02-20 09:13 51.34827 15.22944 41898 ft 506 kts 198°
2026-02-20 09:14 51.31417 15.21561 42022 ft 506 kts 198°
2026-02-20 09:14 51.28010 15.20182 42113 ft 505 kts 198°
2026-02-20 09:14 51.21170 15.17418 42278 ft 507 kts 198°
2026-02-20 09:15 51.17798 15.16058 42383 ft 506 kts 198°
2026-02-20 09:15 51.14381 15.14683 42487 ft 506 kts 198°
2026-02-20 09:15 51.07550 15.11940 42677 ft 506 kts 198°
2026-02-20 09:16 51.01077 15.07782 42761 ft 496 kts 216°
2026-02-20 09:16 50.95829 15.00989 42922 ft 487 kts 228°
2026-02-20 09:17 50.90999 14.93495 43092 ft 487 kts 227°
2026-02-20 09:17 50.85447 14.87218 43194 ft 497 kts 211°
2026-02-20 09:18 50.78829 14.83712 43255 ft 508 kts 196°
2026-02-20 09:18 50.71862 14.81665 43248 ft 510 kts 193°
2026-02-20 09:19 50.64866 14.79836 43246 ft 509 kts 193°
2026-02-20 09:19 50.57885 14.77951 43241 ft 509 kts 193°
2026-02-20 09:20 50.50892 14.76003 43242 ft 509 kts 194°
2026-02-20 09:20 50.43952 14.74053 43239 ft 509 kts 194°
2026-02-20 09:21 50.36973 14.72098 43242 ft 509 kts 194°
2026-02-20 09:21 50.29981 14.70149 43251 ft 510 kts 194°
2026-02-20 09:22 50.22994 14.68208 43258 ft 510 kts 194°
2026-02-20 09:22 50.16003 14.66272 43265 ft 510 kts 193°
2026-02-20 09:23 50.09015 14.64343 43265 ft 510 kts 193°
2026-02-20 09:23 50.02020 14.62418 43261 ft 510 kts 193°
2026-02-20 09:24 49.96217 14.60825 43252 ft 510 kts 193°
2026-02-20 09:24 49.93150 14.59985 43241 ft 510 kts 193°
2026-02-20 09:25 49.86159 14.58073 43221 ft 510 kts 193°
2026-02-20 09:25 49.79166 14.56166 43221 ft 510 kts 193°
2026-02-20 09:26 49.72175 14.54266 43201 ft 510 kts 193°
2026-02-20 09:26 49.65225 14.52382 43227 ft 510 kts 193°
2026-02-20 09:27 49.58231 14.50491 43230 ft 510 kts 193°
2026-02-20 09:27 49.51236 14.48607 43221 ft 509 kts 193°
2026-02-20 09:28 49.44260 14.46732 43222 ft 509 kts 193°
2026-02-20 09:28 49.37286 14.44864 43222 ft 509 kts 193°
2026-02-20 09:29 49.30310 14.43000 43225 ft 509 kts 193°
2026-02-20 09:29 49.23320 14.41138 43225 ft 509 kts 193°
2026-02-20 09:30 49.16328 14.39281 43228 ft 510 kts 193°
2026-02-20 09:30 49.09380 14.37440 43231 ft 510 kts 193°
2026-02-20 09:31 49.02392 14.35595 43227 ft 510 kts 193°
2026-02-20 09:31 48.95433 14.33761 43228 ft 512 kts 193°
2026-02-20 09:32 48.88363 14.32088 43226 ft 515 kts 191°
2026-02-20 09:32 48.81245 14.30673 43231 ft 516 kts 190°
2026-02-20 09:33 48.74118 14.29255 43220 ft 517 kts 190°
2026-02-20 09:33 48.67034 14.27805 43224 ft 517 kts 191°
2026-02-20 09:34 48.59900 14.26327 43222 ft 517 kts 191°
2026-02-20 09:34 48.52772 14.24851 43216 ft 517 kts 190°
2026-02-20 09:35 48.45638 14.23380 43233 ft 517 kts 190°
2026-02-20 09:35 48.38504 14.21914 43233 ft 517 kts 190°
2026-02-20 09:36 48.31378 14.20454 43231 ft 517 kts 190°
2026-02-20 09:36 48.24247 14.18997 43239 ft 517 kts 190°
2026-02-20 09:37 48.17162 14.17553 43235 ft 517 kts 190°
2026-02-20 09:37 48.10036 14.16105 43236 ft 517 kts 190°
2026-02-20 09:38 48.02883 14.14656 43231 ft 518 kts 190°
2026-02-20 09:38 47.95739 14.13212 43225 ft 518 kts 190°
2026-02-20 09:39 47.88588 14.11771 43220 ft 518 kts 190°
2026-02-20 09:39 47.81443 14.10336 43212 ft 518 kts 190°
2026-02-20 09:40 47.74301 14.08905 43206 ft 518 kts 190°
2026-02-20 09:40 47.67157 14.07478 43202 ft 518 kts 190°
2026-02-20 09:41 47.60007 14.06053 43189 ft 518 kts 190°
2026-02-20 09:41 47.52905 14.04641 43174 ft 518 kts 190°
2026-02-20 09:42 47.45743 14.03221 43176 ft 519 kts 190°
2026-02-20 09:43 47.35013 14.01103 43128 ft 519 kts 191°
2026-02-20 09:43 47.27851 13.99693 43130 ft 520 kts 190°
2026-02-20 09:44 47.20671 13.98283 43129 ft 521 kts 191°
2026-02-20 09:44 47.13475 13.96874 43095 ft 521 kts 190°
2026-02-20 09:45 47.06292 13.95473 43088 ft 520 kts 190°
2026-02-20 09:45 46.99163 13.94086 43073 ft 519 kts 190°
2026-02-20 09:46 46.91998 13.92695 43045 ft 520 kts 190°
2026-02-20 09:46 46.84827 13.91306 43031 ft 520 kts 190°
2026-02-20 09:47 46.77646 13.89919 43016 ft 520 kts 190°
2026-02-20 09:47 46.70468 13.88536 43018 ft 520 kts 190°
2026-02-20 09:48 46.63275 13.87154 43001 ft 521 kts 190°
2026-02-20 09:48 46.56091 13.85778 42992 ft 521 kts 190°
2026-02-20 09:49 46.48894 13.84405 42980 ft 522 kts 190°
2026-02-20 09:49 46.41720 13.83037 42961 ft 523 kts 191°
2026-02-20 09:50 46.34502 13.81678 42948 ft 524 kts 190°
2026-02-20 09:50 46.27273 13.80319 42928 ft 522 kts 189°
2026-02-20 09:51 46.20070 13.78962 42903 ft 520 kts 190°
2026-02-20 09:51 46.12893 13.77592 42870 ft 520 kts 190°
2026-02-20 09:52 46.05706 13.76230 42895 ft 521 kts 189°
2026-02-20 09:52 45.98513 13.74878 42902 ft 521 kts 189°
2026-02-20 09:53 45.91358 13.73540 42905 ft 521 kts 189°
2026-02-20 09:53 45.84152 13.72196 42904 ft 521 kts 189°
2026-02-20 09:54 45.76952 13.70857 42902 ft 521 kts 189°
2026-02-20 09:54 45.69754 13.69521 42907 ft 522 kts 189°
2026-02-20 09:55 45.62585 13.68194 42922 ft 522 kts 189°
2026-02-20 09:55 45.55384 13.66864 42938 ft 523 kts 189°
2026-02-20 09:56 45.48159 13.65534 42939 ft 523 kts 189°
2026-02-20 09:56 45.40943 13.64209 42939 ft 523 kts 189°
2026-02-20 09:57 45.33720 13.62885 42921 ft 523 kts 189°
2026-02-20 09:57 45.26497 13.61565 42909 ft 523 kts 189°
2026-02-20 09:58 45.19290 13.60252 42896 ft 523 kts 189°
2026-02-20 09:58 45.12075 13.58940 42876 ft 522 kts 189°
2026-02-20 09:59 45.04868 13.57633 42887 ft 522 kts 189°
2026-02-20 09:59 44.97692 13.56335 42882 ft 522 kts 189°
2026-02-20 10:00 44.90485 13.55035 42884 ft 522 kts 189°
2026-02-20 10:00 44.83282 13.53738 42887 ft 522 kts 189°
2026-02-20 10:01 44.76059 13.52441 42881 ft 522 kts 189°
2026-02-20 10:01 44.68846 13.51150 42888 ft 522 kts 189°
2026-02-20 10:02 44.61635 13.49862 42892 ft 523 kts 189°
2026-02-20 10:02 44.54420 13.48576 42892 ft 523 kts 189°
2026-02-20 10:03 44.47194 13.47292 42908 ft 523 kts 189°
2026-02-20 10:03 44.40228 13.44925 42897 ft 516 kts 205°
2026-02-20 10:04 44.33762 13.40489 42915 ft 514 kts 211°
2026-02-20 10:04 44.27531 13.35711 42922 ft 514 kts 212°
2026-02-20 10:05 44.21270 13.30875 42911 ft 514 kts 212°
2026-02-20 10:05 44.14988 13.26089 42919 ft 514 kts 211°
2026-02-20 10:06 44.08688 13.21336 42920 ft 514 kts 211°
2026-02-20 10:06 44.03465 13.17411 42932 ft 514 kts 211°
2026-02-20 10:07 43.96213 13.11977 42932 ft 504 kts 211°
2026-02-20 10:07 43.90063 13.07376 42939 ft 502 kts 211°
2026-02-20 10:08 43.83914 13.02783 42933 ft 502 kts 211°
2026-02-20 10:08 43.78805 12.98975 42940 ft 502 kts 211°
2026-02-20 10:09 43.72653 12.94401 42930 ft 502 kts 211°
2026-02-20 10:09 43.69576 12.92117 42649 ft 502 kts 211°
2026-02-20 10:09 43.66493 12.89832 41981 ft 503 kts 211°
2026-02-20 10:09 43.64451 12.88320 41493 ft 504 kts 211°
2026-02-20 10:10 43.64218 12.88147 41438 ft 504 kts 211°
2026-02-20 10:10 43.60722 12.85561 40626 ft 505 kts 211°
2026-02-20 10:10 43.57623 12.83272 39920 ft 506 kts 211°
2026-02-20 10:10 43.54511 12.80975 39192 ft 508 kts 211°
2026-02-20 10:11 43.51393 12.78677 38452 ft 510 kts 211°
2026-02-20 10:11 43.48260 12.76371 37531 ft 511 kts 211°
2026-02-20 10:11 43.45113 12.74058 36666 ft 513 kts 211°
2026-02-20 10:11 43.41993 12.71775 35816 ft 515 kts 211°
2026-02-20 10:12 43.38861 12.69367 34984 ft 516 kts 213°
2026-02-20 10:12 43.35787 12.66793 34174 ft 517 kts 214°
2026-02-20 10:12 43.32740 12.64147 33276 ft 519 kts 215°
2026-02-20 10:12 43.29693 12.61487 32352 ft 519 kts 215°
2026-02-20 10:13 43.26669 12.58868 31444 ft 506 kts 214°
2026-02-20 10:13 43.23731 12.56355 30591 ft 494 kts 214°
2026-02-20 10:13 43.20800 12.53869 29709 ft 495 kts 213°
2026-02-20 10:13 43.17865 12.51394 28706 ft 495 kts 213°
2026-02-20 10:14 43.14932 12.48931 27860 ft 493 kts 213°
2026-02-20 10:14 43.12013 12.46488 27057 ft 490 kts 213°
2026-02-20 10:14 43.09108 12.44061 26258 ft 486 kts 213°
2026-02-20 10:14 43.06238 12.41669 25486 ft 482 kts 213°
2026-02-20 10:15 43.03386 12.39294 24838 ft 476 kts 213°
2026-02-20 10:15 43.00575 12.36952 24225 ft 470 kts 213°
2026-02-20 10:15 42.97701 12.34903 23676 ft 464 kts 205°
2026-02-20 10:15 42.94655 12.33558 23135 ft 457 kts 194°
2026-02-20 10:16 42.91519 12.33092 22558 ft 451 kts 183°
2026-02-20 10:16 42.88403 12.33084 22014 ft 443 kts 181°
2026-02-20 10:16 42.85350 12.33150 21466 ft 435 kts 180°
2026-02-20 10:16 42.82343 12.33226 20929 ft 428 kts 180°
2026-02-20 10:17 42.79385 12.33302 20405 ft 422 kts 180°
2026-02-20 10:17 42.76468 12.33376 19889 ft 416 kts 180°
2026-02-20 10:17 42.73593 12.33451 19385 ft 410 kts 181°
2026-02-20 10:17 42.70757 12.33524 18801 ft 407 kts 181°
2026-02-20 10:18 42.67930 12.33596 18189 ft 405 kts 181°
2026-02-20 10:18 42.65124 12.33667 17517 ft 403 kts 181°
2026-02-20 10:18 42.63269 12.33714 17056 ft 402 kts 181°
2026-02-20 10:18 42.62359 12.33737 16845 ft 401 kts 181°
2026-02-20 10:19 42.56815 12.33880 15605 ft 394 kts 181°
2026-02-20 10:19 42.54091 12.33950 15084 ft 389 kts 181°
2026-02-20 10:19 42.51414 12.33772 14578 ft 381 kts 191°
2026-02-20 10:19 42.48850 12.33016 14080 ft 374 kts 197°
2026-02-20 10:20 42.46376 12.32083 13491 ft 360 kts 199°
2026-02-20 10:20 42.44029 12.31147 12808 ft 345 kts 199°
2026-02-20 10:20 42.41775 12.30234 12141 ft 332 kts 199°
2026-02-20 10:20 42.39593 12.29342 11488 ft 322 kts 199°
2026-02-20 10:21 42.37485 12.28476 10849 ft 313 kts 199°
2026-02-20 10:21 42.35425 12.27627 10235 ft 306 kts 199°
2026-02-20 10:21 42.33414 12.26799 9607 ft 299 kts 199°
2026-02-20 10:21 42.31446 12.25988 8999 ft 291 kts 199°
2026-02-20 10:22 42.29552 12.25209 8591 ft 280 kts 199°
2026-02-20 10:22 42.27697 12.24444 8232 ft 277 kts 199°
2026-02-20 10:22 42.25896 12.23703 7959 ft 271 kts 199°
2026-02-20 10:22 42.24133 12.22979 7684 ft 258 kts 199°
2026-02-20 10:23 42.22435 12.22281 7435 ft 252 kts 199°
2026-02-20 10:23 42.20752 12.21589 7102 ft 253 kts 199°
2026-02-20 10:23 42.19058 12.20891 6669 ft 257 kts 199°
2026-02-20 10:23 42.17330 12.20180 6223 ft 261 kts 199°
2026-02-20 10:24 42.15581 12.19463 5758 ft 264 kts 199°
2026-02-20 10:24 42.13823 12.18774 5303 ft 260 kts 196°
2026-02-20 10:24 42.12081 12.18251 4835 ft 252 kts 194°
2026-02-20 10:24 42.10398 12.17783 4495 ft 240 kts 194°
2026-02-20 10:25 42.08782 12.17327 4347 ft 236 kts 194°
2026-02-20 10:25 42.07162 12.17019 4221 ft 236 kts 182°
2026-02-20 10:25 42.05541 12.17316 4079 ft 236 kts 166°
2026-02-20 10:25 42.03977 12.17984 3959 ft 235 kts 161°
2026-02-20 10:26 42.02428 12.18679 3756 ft 233 kts 162°
2026-02-20 10:26 42.00889 12.19331 3449 ft 231 kts 163°
2026-02-20 10:26 41.99352 12.19970 3115 ft 231 kts 162°
2026-02-20 10:26 41.97809 12.20618 2788 ft 232 kts 162°
2026-02-20 10:27 41.96283 12.21261 2459 ft 226 kts 162°
2026-02-20 10:27 41.94820 12.21875 2159 ft 214 kts 161°
2026-02-20 10:27 41.93462 12.22445 1892 ft 200 kts 161°
2026-02-20 10:27 41.92174 12.22983 1640 ft 190 kts 160°
2026-02-20 10:28 41.90954 12.23494 1372 ft 177 kts 160°
2026-02-20 10:28 41.89827 12.23965 1172 ft 162 kts 159°
2026-02-20 10:28 41.88785 12.24410 946 ft 153 kts 160°
2026-02-20 10:28 41.87804 12.24823 762 ft 143 kts 159°
2026-02-20 10:29 41.86877 12.25211 576 ft 136 kts 160°
2026-02-20 10:29 41.85977 12.25591 391 ft 136 kts 162°
2026-02-20 10:29 41.85066 12.25957 207 ft 136 kts 161°
2026-02-20 10:29 41.84162 12.26333 40 ft 133 kts 162°
2026-02-20 10:30 41.83346 12.26678 20 ft 110 kts 162°
2026-02-20 10:30 41.82706 12.26944 21 ft 82 kts 162°
2026-02-20 10:30 41.82296 12.27112 17 ft 41 kts 166°
2026-02-20 10:30 41.82058 12.27133 18 ft 34 kts 188°
2026-02-20 10:31 41.81857 12.27079 20 ft 27 kts 192°
2026-02-20 10:31 41.81699 12.27051 21 ft 13 kts 177°
2026-02-20 10:31 41.81600 12.27083 21 ft 16 kts 163°
2026-02-20 10:31 41.81488 12.27130 19 ft 17 kts 162°
2026-02-20 10:32 41.81429 12.27155 19 ft 8 kts 162°
2026-02-20 10:32 41.81360 12.27184 20 ft 12 kts 162°
2026-02-20 10:32 41.81266 12.27224 21 ft 16 kts 162°
2026-02-20 10:32 41.81149 12.27274 22 ft 19 kts 162°
2026-02-20 10:33 41.81011 12.27332 21 ft 20 kts 163°
2026-02-20 10:33 41.80907 12.27352 19 ft 15 kts 182°
2026-02-20 10:33 41.80791 12.27329 21 ft 19 kts 189°
2026-02-20 10:33 41.80707 12.27294 20 ft 20 kts 207°
2026-02-20 10:34 41.80629 12.27133 22 ft 22 kts 250°
2026-02-20 10:34 41.80573 12.26928 22 ft 25 kts 250°
2026-02-20 10:34 41.80511 12.26700 24 ft 27 kts 250°
2026-02-20 10:34 41.80447 12.26462 22 ft 26 kts 250°
2026-02-20 10:35 41.80381 12.26221 22 ft 28 kts 250°
2026-02-20 10:35 41.80312 12.25976 21 ft 25 kts 249°
2026-02-20 10:35 41.80252 12.25757 23 ft 24 kts 250°
2026-02-20 10:35 41.80202 12.25577 23 ft 20 kts 250°
2026-02-20 10:36 41.80152 12.25397 22 ft 16 kts 249°
2026-02-20 10:36 41.80111 12.25252 22 ft 18 kts 250°
2026-02-20 10:36 41.80095 12.25100 20 ft 17 kts 276°
2026-02-20 10:36 41.80108 12.24992 21 ft 6 kts 276°
2026-02-20 10:37 41.80108 12.24920 23 ft 10 kts 265°
2026-02-20 10:37 41.80087 12.24818 23 ft 12 kts 235°
2026-02-20 10:37 41.80042 12.24795 23 ft 7 kts 172°
2026-02-20 10:37 41.79980 12.24808 22 ft 10 kts 181°
2026-02-20 10:38 41.79928 12.24785 23 ft 9 kts 206°
2026-02-20 10:38 41.79887 12.24759 23 ft 5 kts 205°
2026-02-20 10:38 41.79869 12.24748 24 ft 2 kts 204°
2026-02-20 10:38 41.79863 12.24744 24 ft 0 kts 204°